Starlink 5131

operational
NORAD ID: 53996 Int'l Des: 2022-125 Owner: SPXS Country: US Constellation: starlink
LEOCIRCULAR

关于 Starlink 5131

正在加载描述...

实时位置

正在加载3D地球...

即将过境

高度历史

Altitude vs Time

uPlot chart will show altitude changes over time

两行轨道根数

1 53996U 22125AJ 25354.92256381 -.00000218 00000-0 44068-5 0 9998
2 53996 53.2162 207.5603 0001529 89.5564 270.5603 15.08847054177572
Epoch: Dec 20, 2025 • Age: 8 hours

当前状态

高度 545.1 km
速度 7.60 km/s
星下点 52.47°N, 94.62°E
发射日期 Oct 5, 2022
运行时间 3.2 years
类型 internet

技术详情

分类 Payload
质量 305.00 kg
干质量 290.00 kg
总质量 305.00 kg
长度 0.20 m
直径 2.80 m
跨度 9.00 m
形状 Box + pan
制造商 SPXS
平台类型 Starlink
阶段状态 In Orbit
所有者/国家 SPXS/US

大型星座

Loading constellations...